Flag for U.S.A. Weather past 2 weeks in Plano, Texas, U.S.A.

Now
88 °F

Sunny.


Feels Like: 91 °F
Forecast: 75 / 92 °F
Wind: 8 mph from South

Location: McKinney Municipal Airport

Current Time: Sep 1, 2015 at 12:12:40 PM

Latest Report: Sep 1, 2015 at 11:53 AM


Visibility: 10 mi

Pressure: 30.03 "Hg

Humidity: 50%

Dew point: 67 °F

Location of PlanoLocation

Historic Weather in Plano — Graph

°F

Plano temperature yesterday

Maximum temperature yesterday: 93 °F (at 3:53 PM)
Minimum temperature yesterday: 71 °F (at 6:53 AM)
Average temperature yesterday: 82 °F

Past Weeks' High & Low Weather Summary

 TemperatureHumidityPressure
High97 °F (Aug 18, 2:53 PM)93% (Aug 21, 3:53 AM)30.15 "Hg (Aug 21, 3:53 AM)
Low66 °F (Aug 19, 11:53 PM)21% (Aug 26, 2:53 PM)29.69 "Hg (Aug 18, 7:53 PM)
Average82 °F63%29.96 "Hg
* Reported Aug 17 9:53 AM — Sep 1 9:53 AM, Plano, Weather by CustomWeather, © 2015

Note: Actual official high and low records may vary slightly from our data, if they occured in-between our weather recording intervals... More about our weather records

Advertising

Plano weather history for previous 24 hours

 ConditionsComfort  
Time TempWeatherWind HumidityBarometerVisibility
9:53 AM
Tue, Sep 1
82 °FSunny.7 mph67%30.03 "Hg10 mi
8:53 AM77 °FSunny.3 mph79%30.02 "Hg10 mi
7:53 AM75 °FClear.5 mph85%30.02 "Hg10 mi
6:53 AM74 °FPassing clouds.6 mph85%30.01 "Hg10 mi
5:53 AM74 °FClear.6 mph85%30.01 "Hg10 mi
4:53 AM75 °FClear.6 mph82%30.01 "Hg10 mi
3:53 AM77 °FClear.8 mph74%30.01 "Hg10 mi
2:53 AM78 °FClear.8 mph69%30.00 "Hg10 mi
1:53 AM78 °FClear.9 mph69%30.00 "Hg10 mi
12:53 AM79 °FClear.9 mph65%29.98 "Hg10 mi
11:53 PM
Mon, Aug 31
79 °FClear.5 mph65%29.98 "Hg10 mi
9:53 PM81 °FClear.7 mph56%29.97 "Hg10 mi
8:53 PM83 °FClear.7 mph51%29.95 "Hg10 mi
7:53 PM86 °FSunny.8 mph48%29.94 "Hg10 mi
6:53 PM89 °FSunny.9 mph41%29.93 "Hg10 mi
5:53 PM91 °FSunny.12 mph37%29.93 "Hg10 mi
4:53 PM92 °FSunny.10 mph37%29.94 "Hg10 mi
3:53 PM93 °FPassing clouds.15 mph36%29.95 "Hg10 mi
2:53 PM92 °FSunny.10 mph38%29.98 "Hg10 mi
1:53 PM91 °FSunny.10 mph41%29.99 "Hg10 mi
12:53 PM90 °FSunny.12 mph43%30.01 "Hg10 mi
Weather by CustomWeather, © 2015

See weather overviewHow to use our weather pages